Time,TemperatureF,DewpointF,PressureIn,WindDirection,WindDirectionDegrees,WindSpeedMPH,WindSpeedGustMPH,Humidity,HourlyPrecipIn,Conditions,Clouds,dailyrainin,SoftwareType,DateUTC
2013-03-11 00:00:00,57.3,54.4,30.11,SSW,200,0.0,0.0,90,0.00,,CLR,0.00,VWS V14.01,2013-03-11 04:00:00,
2013-03-11 00:01:00,57.3,54.4,30.12,SSW,200,0.0,0.0,90,0.00,,CLR,0.00,VWS V14.01,2013-03-11 04:01:00,
2013-03-11 00:02:00,57.3,54.4,30.11,SSW,200,0.0,0.0,90,0.00,,CLR,0.00,VWS V14.01,2013-03-11 04:02:00,
2013-03-11 00:08:00,57.1,54.2,30.11,SSW,200,0.0,0.0,90,0.00,,CLR,0.00,VWS V14.01,2013-03-11 04:08:00,
2013-03-11 00:13:00,57.0,54.4,30.11,SSW,200,0.0,0.0,91,0.00,,CLR,0.00,VWS V14.01,2013-03-11 04:13:00,
2013-03-11 00:18:00,56.9,54.3,30.12,SSW,200,0.0,0.0,91,0.00,,CLR,0.00,VWS V14.01,2013-03-11 04:18:00,
2013-03-11 00:23:00,56.8,54.2,30.11,SSW,200,0.0,0.0,91,0.00,,CLR,0.00,VWS V14.01,2013-03-11 04:23:00,
2013-03-11 00:28:00,56.6,54.0,30.11,SSW,200,0.0,0.0,91,0.00,,CLR,0.00,VWS V14.01,2013-03-11 04:28:00,
2013-03-11 00:33:00,56.4,54.1,30.11,SSW,200,0.0,0.0,92,0.00,,CLR,0.00,VWS V14.01,2013-03-11 04:33:00,
2013-03-11 00:38:00,56.3,54.0,30.10,SSW,200,0.0,0.0,92,0.00,,CLR,0.00,VWS V14.01,2013-03-11 04:38:00,
2013-03-11 00:43:00,56.1,53.8,30.11,SSW,200,0.0,0.0,92,0.00,,CLR,0.00,VWS V14.01,2013-03-11 04:43:00,
2013-03-11 00:49:00,56.0,54.0,30.10,SSW,200,0.0,0.0,93,0.00,,CLR,0.00,VWS V14.01,2013-03-11 04:49:00,
2013-03-11 00:54:00,55.8,53.8,30.10,SSW,200,0.0,0.0,93,0.00,,CLR,0.00,VWS V14.01,2013-03-11 04:54:00,
2013-03-11 00:59:00,55.6,53.6,30.10,SSW,200,0.0,0.0,93,0.00,,CLR,0.00,VWS V14.01,2013-03-11 04:59:00,
2013-03-11 01:04:00,55.4,53.4,30.10,SSW,200,0.0,0.0,93,0.00,,CLR,0.00,VWS V14.01,2013-03-11 05:04:00,
2013-03-11 01:09:00,55.4,53.7,30.10,SSW,200,0.0,0.0,94,0.00,,CLR,0.00,VWS V14.01,2013-03-11 05:09:00,
2013-03-11 01:14:00,55.3,53.6,30.10,SSW,200,0.0,0.0,94,0.00,,CLR,0.00,VWS V14.01,2013-03-11 05:14:00,
2013-03-11 01:19:00,55.4,53.7,30.10,WNW,285,0.0,0.0,94,0.00,,CLR,0.00,VWS V14.01,2013-03-11 05:19:00,
2013-03-11 01:24:00,55.3,53.6,30.10,WNW,285,0.0,0.0,94,0.00,,CLR,0.00,VWS V14.01,2013-03-11 05:24:00,
2013-03-11 01:29:00,55.2,53.5,30.09,WNW,285,0.0,0.0,94,0.00,,CLR,0.00,VWS V14.01,2013-03-11 05:29:00,
2013-03-11 01:34:00,55.2,53.5,30.09,WNW,285,0.0,0.0,94,0.00,,CLR,0.00,VWS V14.01,2013-03-11 05:34:00,
2013-03-11 01:40:00,55.1,53.4,30.10,WNW,285,0.0,0.0,94,0.00,,CLR,0.00,VWS V14.01,2013-03-11 05:40:00,
2013-03-11 01:45:00,55.0,53.3,30.10,WNW,285,0.0,0.0,94,0.00,,CLR,0.00,VWS V14.01,2013-03-11 05:45:00,
2013-03-11 01:50:00,55.0,53.6,30.10,WNW,285,0.0,0.0,95,0.00,,CLR,0.00,VWS V14.01,2013-03-11 05:50:00,
2013-03-11 01:55:00,54.9,53.5,30.09,WNW,285,0.0,0.0,95,0.00,,CLR,0.00,VWS V14.01,2013-03-11 05:55:00,
2013-03-11 02:00:00,54.7,53.3,30.09,WNW,285,0.0,0.0,95,0.00,,CLR,0.00,VWS V14.01,2013-03-11 06:00:00,
2013-03-11 02:05:00,54.6,53.2,30.09,WNW,285,0.0,0.0,95,0.00,,CLR,0.00,VWS V14.01,2013-03-11 06:05:00,
2013-03-11 02:10:00,54.3,52.9,30.09,WNW,285,0.0,0.0,95,0.00,,CLR,0.00,VWS V14.01,2013-03-11 06:10:00,
2013-03-11 02:15:00,54.2,52.8,30.09,WNW,285,0.0,0.0,95,0.00,,CLR,0.00,VWS V14.01,2013-03-11 06:15:00,
2013-03-11 02:20:00,54.0,52.6,30.08,WNW,285,0.0,0.0,95,0.00,,CLR,0.00,VWS V14.01,2013-03-11 06:20:00,
2013-03-11 02:25:00,53.9,52.5,30.08,WNW,285,0.0,0.0,95,0.00,,CLR,0.00,VWS V14.01,2013-03-11 06:25:00,
2013-03-11 02:30:00,54.0,52.9,30.08,WNW,285,0.0,0.0,96,0.00,,CLR,0.00,VWS V14.01,2013-03-11 06:30:00,
2013-03-11 02:35:00,54.1,53.0,30.08,WNW,285,0.0,0.0,96,0.00,,CLR,0.00,VWS V14.01,2013-03-11 06:35:00,
2013-03-11 02:40:00,53.9,52.5,30.08,WNW,285,0.0,0.0,95,0.00,,CLR,0.00,VWS V14.01,2013-03-11 06:40:00,
2013-03-11 02:45:00,53.8,52.7,30.08,WNW,285,0.0,0.0,96,0.00,,CLR,0.00,VWS V14.01,2013-03-11 06:45:00,
2013-03-11 02:50:00,53.8,52.7,30.08,WNW,285,0.0,0.0,96,0.00,,CLR,0.00,VWS V14.01,2013-03-11 06:50:00,
2013-03-11 02:55:00,53.8,52.7,30.08,WNW,285,0.0,0.0,96,0.00,,CLR,0.00,VWS V14.01,2013-03-11 06:55:00,
2013-03-11 03:00:00,53.7,52.6,30.08,WNW,285,0.0,0.0,96,0.00,,CLR,0.00,VWS V14.01,2013-03-11 07:00:00,
2013-03-11 03:05:00,53.7,52.6,30.08,WNW,285,0.0,0.0,96,0.00,,CLR,0.00,VWS V14.01,2013-03-11 07:05:00,
2013-03-11 03:11:00,53.6,52.5,30.08,WNW,285,0.0,0.0,96,0.00,,CLR,0.00,VWS V14.01,2013-03-11 07:11:00,
2013-03-11 03:16:00,53.5,52.4,30.07,WNW,285,0.0,0.0,96,0.00,,CLR,0.00,VWS V14.01,2013-03-11 07:16:00,
2013-03-11 03:21:00,53.4,52.3,30.07,WNW,285,0.0,0.0,96,0.00,,CLR,0.00,VWS V14.01,2013-03-11 07:21:00,
2013-03-11 03:26:00,53.3,52.2,30.07,WNW,285,0.0,0.0,96,0.00,,CLR,0.00,VWS V14.01,2013-03-11 07:26:00,
2013-03-11 03:31:00,53.2,52.1,30.07,WNW,285,0.0,0.0,96,0.00,,CLR,0.00,VWS V14.01,2013-03-11 07:31:00,
2013-03-11 03:36:00,53.1,52.0,30.06,WNW,285,0.0,0.0,96,0.00,,CLR,0.00,VWS V14.01,2013-03-11 07:36:00,
2013-03-11 03:42:00,53.1,52.0,30.06,WNW,285,0.0,0.0,96,0.00,,CLR,0.00,VWS V14.01,2013-03-11 07:42:00,
2013-03-11 03:47:00,53.2,52.1,30.06,WNW,285,0.0,0.0,96,0.00,,CLR,0.00,VWS V14.01,2013-03-11 07:47:00,
2013-03-11 03:52:00,53.3,52.5,30.06,WNW,285,0.0,0.0,97,0.00,,CLR,0.00,VWS V14.01,2013-03-11 07:52:00,
2013-03-11 03:57:00,53.3,52.5,30.06,WNW,285,0.0,0.0,97,0.00,,CLR,0.00,VWS V14.01,2013-03-11 07:57:00,
2013-03-11 04:02:00,53.3,52.5,30.05,WNW,285,0.0,0.0,97,0.00,,CLR,0.00,VWS V14.01,2013-03-11 08:02:00,
2013-03-11 04:07:00,53.1,52.0,30.06,WNW,285,0.0,0.0,96,0.00,,CLR,0.00,VWS V14.01,2013-03-11 08:07:00,
2013-03-11 04:12:00,53.0,52.2,30.06,WNW,285,0.0,0.0,97,0.00,,CLR,0.00,VWS V14.01,2013-03-11 08:12:00,
2013-03-11 04:17:00,52.9,52.1,30.05,WNW,285,0.0,0.0,97,0.00,,CLR,0.00,VWS V14.01,2013-03-11 08:17:00,
2013-03-11 04:22:00,52.8,52.0,30.05,WNW,285,0.0,0.0,97,0.00,,CLR,0.00,VWS V14.01,2013-03-11 08:22:00,
2013-03-11 04:27:00,52.8,52.0,30.05,WNW,285,0.0,0.0,97,0.00,,CLR,0.00,VWS V14.01,2013-03-11 08:27:00,
2013-03-11 04:33:00,52.8,52.0,30.05,WNW,285,0.0,0.0,97,0.00,,CLR,0.00,VWS V14.01,2013-03-11 08:33:00,
2013-03-11 04:38:00,52.9,52.1,30.04,WNW,285,0.0,0.0,97,0.00,,CLR,0.00,VWS V14.01,2013-03-11 08:38:00,
2013-03-11 04:43:00,52.8,52.0,30.04,WNW,285,0.0,0.0,97,0.00,,CLR,0.00,VWS V14.01,2013-03-11 08:43:00,
2013-03-11 04:48:00,52.9,52.1,30.04,WNW,285,0.0,0.0,97,0.00,,CLR,0.00,VWS V14.01,2013-03-11 08:48:00,
2013-03-11 04:53:00,52.9,52.1,30.04,WNW,285,0.0,0.0,97,0.00,,CLR,0.00,VWS V14.01,2013-03-11 08:53:00,
2013-03-11 04:58:00,52.8,52.0,30.04,WNW,285,0.0,0.0,97,0.00,,CLR,0.00,VWS V14.01,2013-03-11 08:58:00,
2013-03-11 05:03:00,52.8,52.0,30.04,WNW,285,0.0,0.0,97,0.00,,CLR,0.00,VWS V14.01,2013-03-11 09:03:00,
2013-03-11 05:08:00,52.8,52.0,30.04,WNW,285,0.0,0.0,97,0.00,,CLR,0.00,VWS V14.01,2013-03-11 09:08:00,
2013-03-11 05:13:00,52.9,52.1,30.04,WNW,285,0.0,0.0,97,0.00,,CLR,0.00,VWS V14.01,2013-03-11 09:13:00,
2013-03-11 05:18:00,52.9,52.1,30.04,WNW,285,0.0,0.0,97,0.00,,CLR,0.00,VWS V14.01,2013-03-11 09:18:00,
2013-03-11 05:23:00,52.9,52.1,30.04,WNW,285,0.0,0.0,97,0.00,,CLR,0.00,VWS V14.01,2013-03-11 09:23:00,
2013-03-11 05:29:00,52.8,52.0,30.04,WNW,285,0.0,0.0,97,0.00,,CLR,0.00,VWS V14.01,2013-03-11 09:29:00,
2013-03-11 05:34:00,52.9,52.1,30.03,WNW,285,0.0,0.0,97,0.00,,CLR,0.00,VWS V14.01,2013-03-11 09:34:00,
2013-03-11 05:39:00,53.0,52.2,30.03,WNW,285,0.0,0.0,97,0.00,,CLR,0.00,VWS V14.01,2013-03-11 09:39:00,
2013-03-11 05:44:00,53.0,52.2,30.02,WNW,285,0.0,0.0,97,0.00,,CLR,0.00,VWS V14.01,2013-03-11 09:44:00,
2013-03-11 05:49:00,52.9,52.1,30.02,WNW,285,0.0,0.0,97,0.00,,CLR,0.00,VWS V14.01,2013-03-11 09:49:00,
2013-03-11 05:54:00,52.8,52.0,30.02,WNW,285,0.0,0.0,97,0.00,,CLR,0.00,VWS V14.01,2013-03-11 09:54:00,
2013-03-11 05:59:00,52.8,52.0,30.02,WNW,285,0.0,0.0,97,0.00,,CLR,0.00,VWS V14.01,2013-03-11 09:59:00,
2013-03-11 06:04:00,52.8,52.0,30.02,WNW,285,0.0,0.0,97,0.00,,CLR,0.00,VWS V14.01,2013-03-11 10:04:00,
2013-03-11 06:09:00,53.1,52.3,30.02,WNW,285,0.0,0.0,97,0.00,,CLR,0.00,VWS V14.01,2013-03-11 10:09:00,
2013-03-11 06:14:00,53.2,52.4,30.02,WNW,285,0.0,0.0,97,0.00,,CLR,0.00,VWS V14.01,2013-03-11 10:14:00,
2013-03-11 06:20:00,53.4,52.6,30.02,WNW,285,0.0,0.0,97,0.00,,CLR,0.00,VWS V14.01,2013-03-11 10:20:00,
2013-03-11 06:25:00,53.5,52.7,30.02,WNW,285,0.0,0.0,97,0.00,,CLR,0.00,VWS V14.01,2013-03-11 10:25:00,
2013-03-11 06:30:00,53.5,52.7,30.02,WNW,285,0.0,0.0,97,0.00,,CLR,0.00,VWS V14.01,2013-03-11 10:30:00,
2013-03-11 06:35:00,53.4,52.6,30.02,WNW,285,0.0,0.0,97,0.00,,CLR,0.00,VWS V14.01,2013-03-11 10:35:00,
2013-03-11 06:40:00,53.4,52.6,30.02,WNW,285,0.0,0.0,97,0.00,,CLR,0.00,VWS V14.01,2013-03-11 10:40:00,
2013-03-11 06:45:00,53.3,52.5,30.02,WNW,285,0.0,0.0,97,0.00,,CLR,0.00,VWS V14.01,2013-03-11 10:45:00,
2013-03-11 06:50:00,53.2,52.4,30.03,WNW,285,0.0,0.0,97,0.00,,CLR,0.00,VWS V14.01,2013-03-11 10:50:00,
2013-03-11 06:55:00,53.0,52.2,30.03,WNW,285,0.0,0.0,97,0.00,,CLR,0.00,VWS V14.01,2013-03-11 10:55:00,
2013-03-11 07:00:00,53.2,52.4,30.03,WNW,285,0.0,0.0,97,0.00,,CLR,0.00,VWS V14.01,2013-03-11 11:00:00,
2013-03-11 07:05:00,53.2,52.4,30.03,WNW,285,0.0,0.0,97,0.00,,CLR,0.00,VWS V14.01,2013-03-11 11:05:00,
2013-03-11 07:11:00,53.0,52.2,30.03,WNW,285,0.0,0.0,97,0.00,,CLR,0.00,VWS V14.01,2013-03-11 11:11:00,
2013-03-11 07:16:00,52.9,52.1,30.03,WNW,285,0.0,0.0,97,0.00,,CLR,0.00,VWS V14.01,2013-03-11 11:16:00,
2013-03-11 07:21:00,52.9,52.1,30.03,WNW,285,0.0,0.0,97,0.00,,CLR,0.00,VWS V14.01,2013-03-11 11:21:00,
2013-03-11 07:26:00,52.9,52.1,30.04,WNW,285,0.0,0.0,97,0.00,,CLR,0.00,VWS V14.01,2013-03-11 11:26:00,
2013-03-11 07:32:00,52.8,52.0,30.04,WNW,285,0.0,0.0,97,0.00,,CLR,0.00,VWS V14.01,2013-03-11 11:32:00,
2013-03-11 07:37:00,52.7,51.9,30.04,WNW,285,0.0,0.0,97,0.00,,CLR,0.00,VWS V14.01,2013-03-11 11:37:00,
2013-03-11 07:42:00,52.8,52.0,30.04,WNW,285,0.0,0.0,97,0.00,,CLR,0.00,VWS V14.01,2013-03-11 11:42:00,
2013-03-11 07:47:00,52.8,52.0,30.04,WNW,285,0.0,0.0,97,0.00,,CLR,0.00,VWS V14.01,2013-03-11 11:47:00,
2013-03-11 07:52:00,52.8,52.0,30.05,WNW,285,0.0,0.0,97,0.00,,CLR,0.00,VWS V14.01,2013-03-11 11:52:00,
2013-03-11 07:57:00,52.8,52.0,30.05,WNW,285,0.0,0.0,97,0.00,,CLR,0.00,VWS V14.01,2013-03-11 11:57:00,
2013-03-11 08:02:00,52.8,52.0,30.05,WNW,285,0.0,0.0,97,0.00,,CLR,0.00,VWS V14.01,2013-03-11 12:02:00,
2013-03-11 08:07:00,53.0,52.2,30.05,WNW,285,0.0,0.0,97,0.00,,CLR,0.00,VWS V14.01,2013-03-11 12:07:00,
2013-03-11 08:12:00,53.2,52.4,30.05,WNW,285,0.0,0.0,97,0.00,,CLR,0.00,VWS V14.01,2013-03-11 12:12:00,
2013-03-11 08:17:00,53.4,52.6,30.05,WNW,285,0.0,0.0,97,0.00,,CLR,0.00,VWS V14.01,2013-03-11 12:17:00,
2013-03-11 08:22:00,53.6,53.0,30.05,WNW,285,0.0,0.0,98,0.00,,CLR,0.00,VWS V14.01,2013-03-11 12:22:00,
2013-03-11 08:28:00,54.1,53.5,30.05,WNW,285,0.0,0.0,98,0.00,,CLR,0.00,VWS V14.01,2013-03-11 12:28:00,
2013-03-11 08:33:00,54.5,54.0,30.04,WNW,285,0.0,0.0,98,0.00,,CLR,0.00,VWS V14.01,2013-03-11 12:33:00,
2013-03-11 08:38:00,55.1,54.5,30.04,WNW,285,0.0,0.0,98,0.00,,CLR,0.00,VWS V14.01,2013-03-11 12:38:00,
2013-03-11 08:43:00,55.9,55.3,30.04,SW,215,0.0,1.0,98,0.00,,CLR,0.00,VWS V14.01,2013-03-11 12:43:00,
2013-03-11 08:48:00,56.8,56.2,30.04,SSW,206,0.0,1.0,98,0.00,,CLR,0.00,VWS V14.01,2013-03-11 12:48:00,
2013-03-11 08:53:00,57.5,56.9,30.04,SSW,212,1.0,1.0,98,0.00,,CLR,0.00,VWS V14.01,2013-03-11 12:53:00,
2013-03-11 08:58:00,58.3,58.0,30.04,SE,141,0.0,1.0,99,0.00,,CLR,0.00,VWS V14.01,2013-03-11 12:58:00,
2013-03-11 09:03:00,58.8,58.5,30.04,South,177,0.0,1.0,99,0.00,,CLR,0.00,VWS V14.01,2013-03-11 13:03:00,
2013-03-11 09:09:00,59.4,59.1,30.05,South,172,0.0,2.0,99,0.00,,CLR,0.00,VWS V14.01,2013-03-11 13:09:00,
2013-03-11 09:14:00,60.2,59.6,30.05,SW,222,0.0,4.0,98,0.00,,CLR,0.00,VWS V14.01,2013-03-11 13:14:00,
2013-03-11 09:19:00,61.3,60.2,30.05,SSE,155,0.0,4.0,96,0.00,,CLR,0.00,VWS V14.01,2013-03-11 13:19:00,
2013-03-11 09:24:00,62.4,60.0,30.05,SW,225,1.0,4.0,92,0.00,,CLR,0.00,VWS V14.01,2013-03-11 13:24:00,
2013-03-11 09:29:00,63.5,60.2,30.05,SE,131,0.0,4.0,89,0.00,,CLR,0.00,VWS V14.01,2013-03-11 13:29:00,
2013-03-11 09:34:00,64.7,60.4,30.05,South,176,1.0,1.0,86,0.00,,CLR,0.00,VWS V14.01,2013-03-11 13:34:00,
2013-03-11 09:39:00,65.7,61.1,30.05,SSW,194,2.0,3.0,85,0.00,,CLR,0.00,VWS V14.01,2013-03-11 13:39:00,
2013-03-11 09:44:00,66.6,60.9,30.05,SSW,200,0.0,3.0,82,0.00,,CLR,0.00,VWS V14.01,2013-03-11 13:44:00,
2013-03-11 09:49:00,67.4,60.7,30.05,SW,231,2.0,8.0,79,0.00,,CLR,0.00,VWS V14.01,2013-03-11 13:49:00,
2013-03-11 09:54:00,67.9,60.4,30.05,WSW,240,0.0,8.0,77,0.00,,CLR,0.00,VWS V14.01,2013-03-11 13:54:00,
2013-03-11 09:59:00,68.6,61.1,30.05,SSW,207,1.0,8.0,77,0.00,,CLR,0.00,VWS V14.01,2013-03-11 13:59:00,
2013-03-11 10:04:00,69.1,60.8,30.05,SE,127,4.0,5.0,75,0.00,,CLR,0.00,VWS V14.01,2013-03-11 14:04:00,
2013-03-11 10:10:00,69.5,60.9,30.05,ESE,123,1.0,5.0,74,0.00,,CLR,0.00,VWS V14.01,2013-03-11 14:10:00,
2013-03-11 10:15:00,69.8,60.8,30.05,ESE,102,2.0,6.0,73,0.00,,CLR,0.00,VWS V14.01,2013-03-11 14:15:00,
2013-03-11 10:20:00,69.9,60.5,30.05,SE,138,0.0,7.0,72,0.00,,CLR,0.00,VWS V14.01,2013-03-11 14:20:00,
2013-03-11 10:25:00,69.9,60.5,30.05,ESE,120,1.0,7.0,72,0.00,,CLR,0.00,VWS V14.01,2013-03-11 14:25:00,
2013-03-11 10:30:00,70.2,60.0,30.05,SSW,192,4.0,7.0,70,0.00,,CLR,0.00,VWS V14.01,2013-03-11 14:30:00,
2013-03-11 10:35:00,70.9,60.2,30.05,SE,129,1.0,4.0,69,0.00,,CLR,0.00,VWS V14.01,2013-03-11 14:35:00,
2013-03-11 10:40:00,71.7,59.8,30.05,SSW,205,4.0,8.0,66,0.00,,CLR,0.00,VWS V14.01,2013-03-11 14:40:00,
2013-03-11 10:45:00,72.2,60.2,30.05,SSW,198,2.0,8.0,66,0.00,,CLR,0.00,VWS V14.01,2013-03-11 14:45:00,
2013-03-11 10:50:00,72.9,60.5,30.05,East,89,0.0,8.0,65,0.00,,CLR,0.00,VWS V14.01,2013-03-11 14:50:00,
2013-03-11 10:55:00,73.7,60.8,30.04,South,172,2.0,8.0,64,0.00,,CLR,0.00,VWS V14.01,2013-03-11 14:55:00,
2013-03-11 11:01:00,73.8,60.0,30.04,East,89,4.0,10.0,62,0.00,,CLR,0.00,VWS V14.01,2013-03-11 15:01:00,
2013-03-11 11:06:00,74.0,59.7,30.04,ESE,110,2.0,5.0,61,0.00,,CLR,0.00,VWS V14.01,2013-03-11 15:06:00,
2013-03-11 11:12:00,74.4,59.6,30.04,SSE,155,1.0,7.0,60,0.00,,CLR,0.00,VWS V14.01,2013-03-11 15:12:00,
2013-03-11 11:17:00,75.0,60.7,30.04,ESE,103,1.0,7.0,61,0.00,,CLR,0.00,VWS V14.01,2013-03-11 15:17:00,
2013-03-11 11:22:00,75.6,60.8,30.04,SSE,153,1.0,7.0,60,0.00,,CLR,0.00,VWS V14.01,2013-03-11 15:22:00,
2013-03-11 11:27:00,76.2,59.9,30.04,SSE,166,3.0,7.0,57,0.00,,CLR,0.00,VWS V14.01,2013-03-11 15:27:00,
2013-03-11 11:32:00,76.2,59.9,30.04,SSE,153,0.0,7.0,57,0.00,,CLR,0.00,VWS V14.01,2013-03-11 15:32:00,
2013-03-11 11:38:00,76.1,59.3,30.04,South,169,4.0,5.0,56,0.00,,CLR,0.00,VWS V14.01,2013-03-11 15:38:00,
2013-03-11 11:43:00,76.2,59.9,30.04,ENE,57,1.0,11.0,57,0.00,,CLR,0.00,VWS V14.01,2013-03-11 15:43:00,
2013-03-11 11:48:00,76.4,59.6,30.04,SSW,212,4.0,11.0,56,0.00,,CLR,0.00,VWS V14.01,2013-03-11 15:48:00,
2013-03-11 11:53:00,76.8,59.9,30.04,SE,142,2.0,11.0,56,0.00,,CLR,0.00,VWS V14.01,2013-03-11 15:53:00,
2013-03-11 11:58:00,76.9,59.5,30.04,SSW,205,0.0,11.0,55,0.00,,CLR,0.00,VWS V14.01,2013-03-11 15:58:00,
2013-03-11 12:03:00,76.7,59.3,30.04,SE,141,0.0,11.0,55,0.00,,BKN049,0.00,VWS V14.01,2013-03-11 16:03:00,
2013-03-11 12:08:00,76.4,59.6,30.04,SE,132,0.0,5.0,56,0.00,,BKN049,0.00,VWS V14.01,2013-03-11 16:08:00,
2013-03-11 12:13:00,76.0,59.2,30.04,ESE,115,3.0,5.0,56,0.00,,BKN049,0.00,VWS V14.01,2013-03-11 16:13:00,
2013-03-11 12:18:00,75.8,59.0,30.03,SW,221,0.0,8.0,56,0.00,,BKN049,0.00,VWS V14.01,2013-03-11 16:18:00,
2013-03-11 12:23:00,75.5,58.7,30.03,ESE,110,0.0,8.0,56,0.00,,BKN049,0.00,VWS V14.01,2013-03-11 16:23:00,
2013-03-11 12:28:00,76.2,59.4,30.03,SSE,160,1.0,8.0,56,0.00,,BKN049,0.00,VWS V14.01,2013-03-11 16:28:00,
2013-03-11 12:33:00,77.0,59.6,30.03,SSW,207,4.0,8.0,55,0.00,,BKN049,0.00,VWS V14.01,2013-03-11 16:33:00,
2013-03-11 12:38:00,77.6,59.1,30.03,ENE,78,1.0,5.0,53,0.00,,BKN049,0.00,VWS V14.01,2013-03-11 16:38:00,
2013-03-11 12:43:00,77.7,58.7,30.03,SSE,158,1.0,6.0,52,0.00,,BKN049,0.00,VWS V14.01,2013-03-11 16:43:00,
2013-03-11 12:48:00,77.3,58.8,30.03,SSW,207,1.0,7.0,53,0.00,,BKN049,0.00,VWS V14.01,2013-03-11 16:48:00,
2013-03-11 12:54:00,77.9,58.9,30.02,SSW,212,2.0,7.0,52,0.00,,BKN049,0.00,VWS V14.01,2013-03-11 16:54:00,
2013-03-11 12:59:00,77.2,58.8,30.02,SSW,200,3.0,8.0,53,0.00,,BKN049,0.00,VWS V14.01,2013-03-11 16:59:00,
2013-03-11 13:04:00,76.8,58.9,30.03,NNW,346,0.0,10.0,54,0.00,,BKN047,0.00,VWS V14.01,2013-03-11 17:04:00,
2013-03-11 13:09:00,76.6,59.2,30.02,SSE,153,3.0,5.0,55,0.00,,BKN047,0.00,VWS V14.01,2013-03-11 17:09:00,
2013-03-11 13:14:00,76.1,58.8,30.02,NW,319,2.0,5.0,55,0.00,,BKN047,0.00,VWS V14.01,2013-03-11 17:14:00,
2013-03-11 13:19:00,75.9,58.6,30.02,SSE,158,3.0,5.0,55,0.00,,BKN047,0.00,VWS V14.01,2013-03-11 17:19:00,
2013-03-11 13:24:00,76.0,59.2,30.02,ENE,71,2.0,7.0,56,0.00,,BKN047,0.00,VWS V14.01,2013-03-11 17:24:00,
2013-03-11 13:29:00,77.2,60.3,30.02,NNW,333,1.0,7.0,56,0.00,,BKN047,0.00,VWS V14.01,2013-03-11 17:29:00,
2013-03-11 13:34:00,77.5,60.1,30.03,SE,132,5.0,5.0,55,0.00,,BKN047,0.00,VWS V14.01,2013-03-11 17:34:00,
2013-03-11 13:39:00,77.2,59.3,30.03,South,188,4.0,7.0,54,0.00,,BKN047,0.00,VWS V14.01,2013-03-11 17:39:00,
2013-03-11 13:44:00,76.9,59.5,30.02,SE,139,1.0,7.0,55,0.00,,BKN047,0.00,VWS V14.01,2013-03-11 17:44:00,
2013-03-11 13:49:00,77.3,59.9,30.02,SSE,158,1.0,7.0,55,0.00,,BKN047,0.00,VWS V14.01,2013-03-11 17:49:00,
2013-03-11 13:55:00,77.6,59.1,30.02,ESE,110,3.0,7.0,53,0.00,,BKN047,0.00,VWS V14.01,2013-03-11 17:55:00,
2013-03-11 14:00:00,77.4,59.5,30.01,SSE,164,2.0,7.0,54,0.00,,BKN047,0.00,VWS V14.01,2013-03-11 18:00:00,
2013-03-11 14:05:00,77.0,59.6,30.01,SSE,148,1.0,3.0,55,0.00,,BKN055,0.00,VWS V14.01,2013-03-11 18:05:00,
2013-03-11 14:10:00,77.1,59.2,30.01,East,85,1.0,3.0,54,0.00,,BKN055,0.00,VWS V14.01,2013-03-11 18:10:00,
2013-03-11 14:15:00,77.3,59.4,30.00,SSE,155,4.0,4.0,54,0.00,,BKN055,0.00,VWS V14.01,2013-03-11 18:15:00,
2013-03-11 14:20:00,77.3,58.8,30.00,ESE,108,2.0,9.0,53,0.00,,BKN055,0.00,VWS V14.01,2013-03-11 18:20:00,
2013-03-11 14:25:00,77.3,59.4,29.99,SW,222,1.0,9.0,54,0.00,,BKN055,0.00,VWS V14.01,2013-03-11 18:25:00,
2013-03-11 14:30:00,77.6,59.1,29.99,SSE,155,1.0,9.0,53,0.00,,BKN055,0.00,VWS V14.01,2013-03-11 18:30:00,
2013-03-11 14:36:00,77.5,59.0,29.99,ESE,122,1.0,4.0,53,0.00,,BKN055,0.00,VWS V14.01,2013-03-11 18:36:00,
2013-03-11 14:41:00,77.3,59.4,29.99,SSE,153,3.0,5.0,54,0.00,,BKN055,0.00,VWS V14.01,2013-03-11 18:41:00,
2013-03-11 14:46:00,77.4,59.5,29.99,East,98,0.0,5.0,54,0.00,,BKN055,0.00,VWS V14.01,2013-03-11 18:46:00,
2013-03-11 14:51:00,78.2,59.7,29.98,South,191,1.0,5.0,53,0.00,,BKN055,0.00,VWS V14.01,2013-03-11 18:51:00,
2013-03-11 14:56:00,78.6,57.9,29.98,SSE,151,2.0,9.0,49,0.00,,BKN055,0.00,VWS V14.01,2013-03-11 18:56:00,
2013-03-11 15:02:00,78.1,59.1,29.98,SE,134,3.0,10.0,52,0.00,,OVC060,0.00,VWS V14.01,2013-03-11 19:02:00,
2013-03-11 15:07:00,78.4,59.9,29.97,SSE,147,1.0,5.0,53,0.00,,OVC060,0.00,VWS V14.01,2013-03-11 19:07:00,
2013-03-11 15:12:00,78.8,59.7,29.97,ESE,120,4.0,5.0,52,0.00,,OVC060,0.00,VWS V14.01,2013-03-11 19:12:00,
2013-03-11 15:17:00,78.9,59.8,29.97,SSE,165,3.0,6.0,52,0.00,,OVC060,0.00,VWS V14.01,2013-03-11 19:17:00,
2013-03-11 15:22:00,78.8,60.2,29.96,East,98,1.0,6.0,53,0.00,,OVC060,0.00,VWS V14.01,2013-03-11 19:22:00,
2013-03-11 15:27:00,78.5,58.9,29.96,SE,132,5.0,6.0,51,0.00,,OVC060,0.00,VWS V14.01,2013-03-11 19:27:00,
2013-03-11 15:32:00,78.0,59.5,29.96,SSE,156,2.0,6.0,53,0.00,,OVC060,0.00,VWS V14.01,2013-03-11 19:32:00,
2013-03-11 15:37:00,77.7,59.2,29.96,SSW,212,3.0,6.0,53,0.00,,OVC060,0.00,VWS V14.01,2013-03-11 19:37:00,
2013-03-11 15:42:00,77.3,59.4,29.95,ESE,115,2.0,6.0,54,0.00,,OVC060,0.00,VWS V14.01,2013-03-11 19:42:00,
2013-03-11 15:47:00,77.5,59.6,29.95,South,170,3.0,6.0,54,0.00,,OVC060,0.00,VWS V14.01,2013-03-11 19:47:00,
2013-03-11 15:52:00,78.2,59.7,29.95,ESE,110,2.0,8.0,53,0.00,,OVC060,0.00,VWS V14.01,2013-03-11 19:52:00,
2013-03-11 15:58:00,78.0,59.5,29.95,SE,142,4.0,8.0,53,0.00,,OVC060,0.00,VWS V14.01,2013-03-11 19:58:00,
2013-03-11 16:03:00,77.6,59.7,29.95,East,91,1.0,8.0,54,0.00,,BKN060,0.00,VWS V14.01,2013-03-11 20:03:00,
2013-03-11 16:08:00,77.6,59.7,29.94,SE,142,3.0,5.0,54,0.00,,BKN060,0.00,VWS V14.01,2013-03-11 20:08:00,
2013-03-11 16:13:00,77.6,59.7,29.94,SSE,152,1.0,7.0,54,0.00,,BKN060,0.00,VWS V14.01,2013-03-11 20:13:00,
2013-03-11 16:18:00,77.4,59.5,29.94,SW,226,4.0,7.0,54,0.00,,BKN060,0.00,VWS V14.01,2013-03-11 20:18:00,
2013-03-11 16:23:00,77.4,60.0,29.94,SSE,158,1.0,7.0,55,0.00,,BKN060,0.00,VWS V14.01,2013-03-11 20:23:00,
2013-03-11 16:28:00,77.7,60.3,29.94,SE,128,1.0,7.0,55,0.00,,BKN060,0.00,VWS V14.01,2013-03-11 20:28:00,
2013-03-11 16:33:00,78.0,60.0,29.93,SSW,205,1.0,7.0,54,0.00,,BKN060,0.00,VWS V14.01,2013-03-11 20:33:00,
2013-03-11 16:39:00,78.1,60.1,29.93,SE,136,1.0,6.0,54,0.00,,BKN060,0.00,VWS V14.01,2013-03-11 20:39:00,
2013-03-11 16:44:00,78.0,60.0,29.93,West,269,2.0,6.0,54,0.00,,BKN060,0.00,VWS V14.01,2013-03-11 20:44:00,
2013-03-11 16:49:00,77.5,59.6,29.93,SE,139,2.0,6.0,54,0.00,,BKN060,0.00,VWS V14.01,2013-03-11 20:49:00,
2013-03-11 16:54:00,77.3,59.9,29.93,South,190,0.0,6.0,55,0.00,,BKN060,0.00,VWS V14.01,2013-03-11 20:54:00,
2013-03-11 16:59:00,77.2,59.8,29.93,SSW,193,3.0,6.0,55,0.00,,BKN060,0.00,VWS V14.01,2013-03-11 20:59:00,
2013-03-11 17:04:00,77.0,59.6,29.93,SSE,152,1.0,3.0,55,0.00,,BKN060,0.00,VWS V14.01,2013-03-11 21:04:00,
2013-03-11 17:09:00,77.0,59.6,29.93,SSE,152,2.0,6.0,55,0.00,,BKN060,0.00,VWS V14.01,2013-03-11 21:09:00,
2013-03-11 17:14:00,77.1,59.7,29.93,West,280,0.0,6.0,55,0.00,,BKN060,0.00,VWS V14.01,2013-03-11 21:14:00,
2013-03-11 17:19:00,76.9,59.5,29.93,SSE,166,4.0,6.0,55,0.00,,BKN060,0.00,VWS V14.01,2013-03-11 21:19:00,
2013-03-11 17:25:00,76.8,59.9,29.93,SSE,165,3.0,6.0,56,0.00,,BKN060,0.00,VWS V14.01,2013-03-11 21:25:00,
2013-03-11 17:30:00,76.5,59.7,29.93,SE,136,0.0,6.0,56,0.00,,BKN060,0.00,VWS V14.01,2013-03-11 21:30:00,
2013-03-11 17:35:00,76.0,60.2,29.93,SW,231,2.0,2.0,58,0.00,,BKN060,0.00,VWS V14.01,2013-03-11 21:35:00,
2013-03-11 17:40:00,75.3,60.5,29.93,SW,221,0.0,6.0,60,0.00,,BKN060,0.00,VWS V14.01,2013-03-11 21:40:00,
2013-03-11 17:45:00,74.9,60.6,29.93,WSW,241,0.0,6.0,61,0.00,,BKN060,0.00,VWS V14.01,2013-03-11 21:45:00,
2013-03-11 17:50:00,74.6,60.7,29.92,SSE,158,0.0,6.0,62,0.00,,BKN060,0.00,VWS V14.01,2013-03-11 21:50:00,
2013-03-11 17:55:00,74.4,61.0,29.93,SE,139,0.0,6.0,63,0.00,,BKN060,0.00,VWS V14.01,2013-03-11 21:55:00,
2013-03-11 18:00:00,74.1,60.7,29.93,SW,222,0.0,6.0,63,0.00,,BKN060,0.00,VWS V14.01,2013-03-11 22:00:00,
2013-03-11 18:05:00,73.9,61.0,29.93,SW,215,0.0,1.0,64,0.00,,BKN065,0.00,VWS V14.01,2013-03-11 22:05:00,
2013-03-11 18:10:00,73.9,61.4,29.93,SE,142,0.0,2.0,65,0.00,,BKN065,0.00,VWS V14.01,2013-03-11 22:10:00,
2013-03-11 18:15:00,74.0,61.5,29.92,SSE,152,0.0,2.0,65,0.00,,BKN065,0.00,VWS V14.01,2013-03-11 22:15:00,
2013-03-11 18:21:00,73.8,61.3,29.92,SE,126,0.0,2.0,65,0.00,,BKN065,0.00,VWS V14.01,2013-03-11 22:21:00,
2013-03-11 18:26:00,73.5,61.5,29.92,ESE,115,1.0,2.0,66,0.00,,BKN065,0.00,VWS V14.01,2013-03-11 22:26:00,
2013-03-11 18:31:00,73.1,61.5,29.92,SW,225,0.0,5.0,67,0.00,,BKN065,0.00,VWS V14.01,2013-03-11 22:31:00,
2013-03-11 18:36:00,72.7,61.5,29.92,ENE,72,0.0,5.0,68,0.00,,BKN065,0.00,VWS V14.01,2013-03-11 22:36:00,
2013-03-11 18:41:00,72.3,61.6,29.91,SSW,198,0.0,5.0,69,0.00,,BKN065,0.00,VWS V14.01,2013-03-11 22:41:00,
2013-03-11 18:47:00,72.0,61.7,29.92,SE,129,1.0,5.0,70,0.00,,BKN065,0.00,VWS V14.01,2013-03-11 22:47:00,
2013-03-11 18:52:00,71.7,61.4,29.92,SE,135,1.0,7.0,70,0.00,,BKN065,0.00,VWS V14.01,2013-03-11 22:52:00,
2013-03-11 18:57:00,71.5,61.6,29.92,SSW,210,1.0,7.0,71,0.00,,BKN065,0.00,VWS V14.01,2013-03-11 22:57:00,
2013-03-11 19:03:00,71.3,61.4,29.92,SE,135,0.0,7.0,71,0.00,,SCT070,0.00,VWS V14.01,2013-03-11 23:03:00,
2013-03-11 19:08:00,71.2,61.7,29.92,SSE,152,0.0,3.0,72,0.00,,SCT070,0.00,VWS V14.01,2013-03-11 23:08:00,
2013-03-11 19:13:00,71.0,61.5,29.92,SSW,193,4.0,4.0,72,0.00,,SCT070,0.00,VWS V14.01,2013-03-11 23:13:00,
2013-03-11 19:18:00,70.8,61.3,29.92,SSE,153,0.0,4.0,72,0.00,,SCT070,0.00,VWS V14.01,2013-03-11 23:18:00,
2013-03-11 19:23:00,70.6,61.5,29.92,SE,146,0.0,4.0,73,0.00,,SCT070,0.00,VWS V14.01,2013-03-11 23:23:00,
2013-03-11 19:28:00,70.4,61.3,29.92,ESE,106,0.0,4.0,73,0.00,,SCT070,0.00,VWS V14.01,2013-03-11 23:28:00,
2013-03-11 19:33:00,70.2,61.2,29.92,East,86,0.0,4.0,73,0.00,,SCT070,0.00,VWS V14.01,2013-03-11 23:33:00,
2013-03-11 19:38:00,70.0,61.3,29.92,SSW,194,2.0,4.0,74,0.00,,SCT070,0.00,VWS V14.01,2013-03-11 23:38:00,
2013-03-11 19:43:00,69.9,61.2,29.92,South,172,0.0,7.0,74,0.00,,SCT070,0.00,VWS V14.01,2013-03-11 23:43:00,
2013-03-11 19:49:00,69.7,61.0,29.92,SSE,165,0.0,7.0,74,0.00,,SCT070,0.00,VWS V14.01,2013-03-11 23:49:00,
2013-03-11 19:54:00,69.5,61.2,29.92,South,191,0.0,7.0,75,0.00,,SCT070,0.00,VWS V14.01,2013-03-11 23:54:00,
2013-03-11 19:59:00,69.4,61.1,29.92,SW,215,1.0,7.0,75,0.00,,SCT070,0.00,VWS V14.01,2013-03-11 23:59:00,
2013-03-11 20:04:00,69.2,61.3,29.92,SSW,205,0.0,1.0,76,0.00,,SCT060,0.00,VWS V14.01,2013-03-12 00:04:00,
2013-03-11 20:09:00,69.1,61.2,29.92,ESE,115,0.0,4.0,76,0.00,,SCT060,0.00,VWS V14.01,2013-03-12 00:09:00,
2013-03-11 20:14:00,69.1,61.2,29.92,SSE,161,0.0,4.0,76,0.00,,SCT060,0.00,VWS V14.01,2013-03-12 00:14:00,
2013-03-11 20:19:00,69.0,61.5,29.92,SSE,155,0.0,4.0,77,0.00,,SCT060,0.00,VWS V14.01,2013-03-12 00:19:00,
2013-03-11 20:24:00,68.9,61.4,29.92,SSE,154,0.0,4.0,77,0.00,,SCT060,0.00,VWS V14.01,2013-03-12 00:24:00,
2013-03-11 20:29:00,68.8,61.3,29.92,SE,134,0.0,4.0,77,0.00,,SCT060,0.00,VWS V14.01,2013-03-12 00:29:00,
2013-03-11 20:35:00,68.7,61.6,29.91,West,261,1.0,4.0,78,0.00,,SCT060,0.00,VWS V14.01,2013-03-12 00:35:00,
2013-03-11 20:40:00,68.6,61.5,29.91,SW,220,1.0,5.0,78,0.00,,SCT060,0.00,VWS V14.01,2013-03-12 00:40:00,
2013-03-11 20:45:00,68.5,61.4,29.92,SW,218,2.0,5.0,78,0.00,,SCT060,0.00,VWS V14.01,2013-03-12 00:45:00,
2013-03-11 20:50:00,68.5,61.7,29.92,SSE,167,0.0,5.0,79,0.00,,SCT060,0.00,VWS V14.01,2013-03-12 00:50:00,
2013-03-11 20:55:00,68.3,61.5,29.92,SW,226,1.0,5.0,79,0.00,,SCT060,0.00,VWS V14.01,2013-03-12 00:55:00,
2013-03-11 21:00:00,68.3,61.5,29.93,SSW,198,3.0,5.0,79,0.00,,SCT060,0.00,VWS V14.01,2013-03-12 01:00:00,
2013-03-11 21:05:00,68.3,61.5,29.93,SW,222,1.0,3.0,79,0.00,,BKN060,0.00,VWS V14.01,2013-03-12 01:05:00,
2013-03-11 21:10:00,68.3,61.9,29.93,ESE,103,2.0,3.0,80,0.00,,BKN060,0.00,VWS V14.01,2013-03-12 01:10:00,
2013-03-11 21:15:00,68.2,61.8,29.93,East,98,1.0,3.0,80,0.00,,BKN060,0.00,VWS V14.01,2013-03-12 01:15:00,
2013-03-11 21:20:00,68.2,61.8,29.94,South,191,0.0,4.0,80,0.00,,BKN060,0.00,VWS V14.01,2013-03-12 01:20:00,
2013-03-11 21:25:00,68.1,61.7,29.94,SSE,155,0.0,4.0,80,0.00,,BKN060,0.00,VWS V14.01,2013-03-12 01:25:00,
2013-03-11 21:30:00,68.1,61.7,29.94,ESE,116,0.0,4.0,80,0.00,,BKN060,0.00,VWS V14.01,2013-03-12 01:30:00,
2013-03-11 21:36:00,68.1,61.7,29.95,SE,133,0.0,1.0,80,0.00,,BKN060,0.00,VWS V14.01,2013-03-12 01:36:00,
2013-03-11 21:41:00,68.0,62.0,29.94,SSW,203,0.0,1.0,81,0.00,,BKN060,0.00,VWS V14.01,2013-03-12 01:41:00,
2013-03-11 21:46:00,67.9,61.9,29.94,SSW,208,0.0,2.0,81,0.00,,BKN060,0.00,VWS V14.01,2013-03-12 01:46:00,
2013-03-11 21:51:00,67.8,61.8,29.94,SSE,150,0.0,6.0,81,0.00,,BKN060,0.00,VWS V14.01,2013-03-12 01:51:00,
2013-03-11 21:57:00,67.7,61.7,29.94,SE,132,1.0,6.0,81,0.00,,BKN060,0.00,VWS V14.01,2013-03-12 01:57:00,
2013-03-11 22:02:00,67.7,62.0,29.94,SE,136,0.0,6.0,82,0.00,,SCT065,0.00,VWS V14.01,2013-03-12 02:02:00,
2013-03-11 22:07:00,67.5,61.8,29.94,South,187,0.0,3.0,82,0.00,,SCT065,0.00,VWS V14.01,2013-03-12 02:07:00,
2013-03-11 22:12:00,67.5,61.8,29.94,SSE,165,0.0,3.0,82,0.00,,SCT065,0.00,VWS V14.01,2013-03-12 02:12:00,
2013-03-11 22:17:00,67.4,61.7,29.94,South,169,0.0,3.0,82,0.00,,SCT065,0.00,VWS V14.01,2013-03-12 02:17:00,
2013-03-11 22:22:00,67.3,62.0,29.94,SE,129,0.0,6.0,83,0.00,,SCT065,0.00,VWS V14.01,2013-03-12 02:22:00,
2013-03-11 22:27:00,67.2,61.9,29.94,South,183,0.0,6.0,83,0.00,,SCT065,0.00,VWS V14.01,2013-03-12 02:27:00,
2013-03-11 22:32:00,67.2,61.9,29.95,SSW,207,1.0,6.0,83,0.00,,SCT065,0.00,VWS V14.01,2013-03-12 02:32:00,
2013-03-11 22:37:00,67.1,61.8,29.95,SSW,200,0.0,4.0,83,0.00,,SCT065,0.00,VWS V14.01,2013-03-12 02:37:00,
2013-03-11 22:43:00,67.2,61.9,29.95,SSW,207,1.0,6.0,83,0.00,,SCT065,0.00,VWS V14.01,2013-03-12 02:43:00,
2013-03-11 22:48:00,67.3,61.6,29.95,SSE,148,2.0,6.0,82,0.00,,SCT065,0.00,VWS V14.01,2013-03-12 02:48:00,
2013-03-11 22:53:00,67.3,61.6,29.95,SE,142,0.0,6.0,82,0.00,,SCT065,0.00,VWS V14.01,2013-03-12 02:53:00,
2013-03-11 22:58:00,67.5,61.8,29.94,SSW,213,1.0,6.0,82,0.00,,SCT065,0.00,VWS V14.01,2013-03-12 02:58:00,
2013-03-11 23:03:00,67.5,61.5,29.94,ESE,105,1.0,6.0,81,0.00,,FEW050,0.00,VWS V14.01,2013-03-12 03:03:00,
2013-03-11 23:08:00,67.5,61.5,29.94,ESE,110,3.0,5.0,81,0.00,,FEW050,0.00,VWS V14.01,2013-03-12 03:08:00,
2013-03-11 23:13:00,67.5,61.5,29.94,SE,134,3.0,6.0,81,0.00,,FEW050,0.00,VWS V14.01,2013-03-12 03:13:00,
2013-03-11 23:18:00,67.6,61.6,29.94,SE,144,1.0,7.0,81,0.00,,FEW050,0.00,VWS V14.01,2013-03-12 03:18:00,
2013-03-11 23:23:00,67.6,61.6,29.94,South,172,3.0,7.0,81,0.00,,FEW050,0.00,VWS V14.01,2013-03-12 03:23:00,
2013-03-11 23:28:00,67.7,61.3,29.94,SE,125,0.0,7.0,80,0.00,,FEW050,0.00,VWS V14.01,2013-03-12 03:28:00,
2013-03-11 23:33:00,67.8,61.4,29.94,ENE,77,2.0,12.0,80,0.00,,FEW050,0.00,VWS V14.01,2013-03-12 03:33:00,
2013-03-11 23:38:00,67.9,61.5,29.94,SW,226,1.0,7.0,80,0.00,,FEW050,0.00,VWS V14.01,2013-03-12 03:38:00,
2013-03-11 23:43:00,67.9,61.5,29.94,SE,146,1.0,7.0,80,0.00,,FEW050,0.00,VWS V14.01,2013-03-12 03:43:00,
2013-03-11 23:48:00,67.9,61.5,29.94,South,173,1.0,7.0,80,0.00,,FEW050,0.00,VWS V14.01,2013-03-12 03:48:00,
2013-03-11 23:53:00,67.9,61.5,29.94,SE,139,2.0,7.0,80,0.00,,FEW050,0.00,VWS V14.01,2013-03-12 03:53:00,
2013-03-11 23:58:00,67.9,61.5,29.93,South,184,1.0,8.0,80,0.00,,FEW050,0.00,VWS V14.01,2013-03-12 03:58:00,